ニート彗星

169P/NEAT (2022)

English version
Home page
Updated on May 24, 2020

---------------------------------------------------------------------

・ プロフィール

・ 軌道要素

Epoch 2022 June 30.0 TT = JDT 2459760.5                                         
T 2022 July  9.68361 TT                                 Rudenko                 
q   0.6028269            (2000.0)            P               Q                  
n   0.23478522     Peri.  218.04392     +0.82675419     -0.56240602             
a   2.6022892      Node   176.10665     +0.55214239     +0.80668183             
e   0.7683475      Incl.   11.29902     +0.10777889     +0.18155962             
P   4.20                                                                        
From 1186 observations 1989 Mar. 7-2020 May 13, mean residual 0".5.             

・ 星図

・ 光度変化

        H = 15.3  G = 0.15                [   ,-61]  (              〜2022年 5月 9日)
        m1 = 15.8 + 5 logΔ + 20.0 log r  [-61, 50]  (2022年 5月 9日〜2022年 8月28日)
        H = 15.3  G = 0.15                [ 50,   ]  (2022年 8月28日〜              )

---------------------------------------------------------------------

軌道要素はM.P.E.C. 2020-K117に掲載されたものです。
星図はステラナビゲータ Ver.10 (アストロアーツ) で作成したものです。
光度グラフはComet for Windowsで作成したものです。

---------------------------------------------------------------------

Copyright(C) Seiichi Yoshida (comet@aerith.net). All rights reserved.